This is the latest recevied weather packets stored in our database for station/object OE3CJB-13. If no packets are shown the sender has not sent any weather packets the latest 10 day(s).
| Time | Temp. | Humidity | Pressure | Rain* | Wind** | Luminosity | Snow |
|---|---|---|---|---|---|---|---|
| 1777722327 | 23.33° C | - | 761.2 hPa | 0 mm | - | - | - |
| 1777721415 | 23.33° C | - | 762.9 hPa | 0 mm | - | - | - |
| 1777720550 | 22.78° C | - | 762.2 hPa | 0 mm | - | - | - |
| 1777719641 | 22.22° C | - | 760.7 hPa | 0 mm | - | - | - |
| 1777718775 | 22.22° C | - | 760.8 hPa | 0 mm | - | - | - |
| 1777717815 | 21.67° C | - | 760.9 hPa | 0 mm | - | - | - |
| 1777716951 | 21.67° C | 10% | 759.3 hPa | 0 mm | - | - | - |
| 1777716089 | 21.11° C | 12% | 759.4 hPa | 0 mm | - | - | - |
| 1777715127 | 21.11° C | 13% | 758.7 hPa | 0 mm | - | - | - |
| 1777714265 | 20.56° C | 15% | 759.5 hPa | 0 mm | - | - | - |
| 1777713351 | 20° C | 16% | 758.9 hPa | 0 mm | - | - | - |
| 1777712442 | 20° C | 18% | 758.1 hPa | 0 mm | - | - | - |
| 1777711526 | 19.44° C | 20% | 758.2 hPa | 0 mm | - | - | - |
| 1777710665 | 18.89° C | 23% | 757.5 hPa | 0 mm | - | - | - |
| 1777709751 | 18.33° C | 27% | 757.5 hPa | 0 mm | - | - | - |
| 1777708841 | 17.78° C | 31% | 757.5 hPa | 0 mm | - | - | - |
| 1777707927 | 16.67° C | 34% | 757.6 hPa | 0 mm | - | - | - |
| 1777707014 | 15.56° C | 40% | 756.8 hPa | 0 mm | - | - | - |
| 1777706150 | 14.44° C | 43% | 756.2 hPa | 0 mm | - | - | - |
| 1777705241 | 13.89° C | 45% | 754.6 hPa | 0 mm | - | - | - |
| 1777704326 | 13.33° C | 48% | 752.3 hPa | 0 mm | - | - | - |
| 1777703414 | 12.78° C | 49% | 752.3 hPa | 0 mm | - | - | - |
| 1777702551 | 12.22° C | 52% | 751.5 hPa | 0 mm | - | - | - |
| 1777701641 | 11.11° C | 61% | 750 hPa | 0 mm | - | - | - |
| 1777700726 | 9.44° C | 62% | 750.8 hPa | 0 mm | - | - | - |
* Rain latest hour (hover to see other rain measurements)
** Current wind speed in m/s (hover to see current wind gust speed)